This is the latest recevied weather packets stored in our database for station/object N2PPN. If no packets are shown the sender has not sent any weather packets the latest 10 day(s).
| Time | Temp. | Humidity | Pressure | Rain* | Wind** | Luminosity | Snow |
|---|---|---|---|---|---|---|---|
| 1777806638 | 7.22° C | 61% | 1013.8 hPa | 0 mm | - | 61 W/m² | - |
| 1777806334 | 7.22° C | 62% | 1013.8 hPa | 0 mm | - | 65 W/m² | - |
| 1777806031 | 7.22° C | 62% | 1013.8 hPa | 0 mm | - | 63 W/m² | - |
| 1777805727 | 6.67° C | 62% | 1013.8 hPa | 0 mm | - | 54 W/m² | - |
| 1777805425 | 6.67° C | 63% | 1013.8 hPa | 0 mm | - | 43 W/m² | - |
| 1777805123 | 6.67° C | 63% | 1013.8 hPa | 0 mm | - | 37 W/m² | - |
| 1777804821 | 6.67° C | 62% | 1013.6 hPa | 0 mm | - | 33 W/m² | - |
| 1777804518 | 6.67° C | 62% | 1013.4 hPa | 0 mm | - | 30 W/m² | - |
| 1777804216 | 6.67° C | 63% | 1013.4 hPa | 0 mm | - | 24 W/m² | - |
| 1777803912 | 6.67° C | 63% | 1013.4 hPa | 0 mm | - | 20 W/m² | - |
| 1777803609 | 6.67° C | 62% | 1013.2 hPa | 0 mm | - | 16 W/m² | - |
| 1777803305 | 6.67° C | 62% | 1013.2 hPa | 0 mm | - | 13 W/m² | - |
| 1777803003 | 6.67° C | 62% | 1013.1 hPa | 0 mm | - | 10 W/m² | - |
| 1777802700 | 6.67° C | 62% | 1013 hPa | 0 mm | - | 7 W/m² | - |
| 1777802398 | 7.22° C | 62% | 1013 hPa | 0 mm | - | 4 W/m² | - |
| 1777802095 | 7.22° C | 62% | 1013 hPa | 0 mm | - | 3 W/m² | - |
| 1777801793 | 6.67° C | 61% | 1012.8 hPa | 0 mm | - | 2 W/m² | - |
| 1777801490 | 6.67° C | 63% | 1013.1 hPa | 0 mm | - | 1 W/m² | - |
| 1777801186 | 7.22° C | 63% | 1012.9 hPa | 0 mm | - | 0 W/m² | - |
| 1777800884 | 7.22° C | 62% | 1012.7 hPa | 0 mm | - | 0 W/m² | - |
| 1777800579 | 7.22° C | 62% | 1012.9 hPa | 0 mm | - | 0 W/m² | - |
| 1777800276 | 7.22° C | 61% | 1012.9 hPa | 0 mm | - | 0 W/m² | - |
| 1777799971 | 7.22° C | 60% | 1012.9 hPa | 0 mm | - | 0 W/m² | - |
| 1777799668 | 7.22° C | 60% | 1012.8 hPa | 0 mm | - | 0 W/m² | - |
| 1777799364 | 7.22° C | 59% | 1012.8 hPa | 0 mm | - | 0 W/m² | - |
* Rain latest hour (hover to see other rain measurements)
** Current wind speed in m/s (hover to see current wind gust speed)